owner,sensor,date,latitude,longitude,sea_surface_height_above_sea_level,qcFlag 
WAVCIS,ioos:station:WAVCIS:CSI16:1,2012-07-01T00:00:00Z,29.4012,-89.0355,8.522,11111222 
WAVCIS,ioos:station:WAVCIS:CSI16:1,2012-07-01T01:00:00Z,29.4012,-89.0355,8.565,11111222 
WAVCIS,ioos:station:WAVCIS:CSI16:1,2012-07-01T02:00:00Z,29.4012,-89.0355,8.624,11111222 
WAVCIS,ioos:station:WAVCIS:CSI16:1,2012-07-01T03:00:00Z,29.4012,-89.0355,8.682,11111222 
WAVCIS,ioos:station:WAVCIS:CSI16:1,2012-07-01T04:00:00Z,29.4012,-89.0355,8.746,11111222 
WAVCIS,ioos:station:WAVCIS:CSI16:1,2012-07-01T05:00:00Z,29.4012,-89.0355,8.804,11111222 
WAVCIS,ioos:station:WAVCIS:CSI16:1,2012-07-01T06:00:00Z,29.4012,-89.0355,8.869,11111222 
WAVCIS,ioos:station:WAVCIS:CSI16:1,2012-07-01T07:00:00Z,29.4012,-89.0355,8.932,11111222 
WAVCIS,ioos:station:WAVCIS:CSI16:1,2012-07-01T08:00:00Z,29.4012,-89.0355,9.004,11111222 
WAVCIS,ioos:station:WAVCIS:CSI16:1,2012-07-01T09:00:00Z,29.4012,-89.0355,9.064,11111222 
WAVCIS,ioos:station:WAVCIS:CSI16:1,2012-07-01T10:00:00Z,29.4012,-89.0355,9.11,11111222 
WAVCIS,ioos:station:WAVCIS:CSI16:1,2012-07-01T11:00:00Z,29.4012,-89.0355,9.132,11111222 
WAVCIS,ioos:station:WAVCIS:CSI16:1,2012-07-01T12:00:00Z,29.4012,-89.0355,9.146,11111222 
WAVCIS,ioos:station:WAVCIS:CSI16:1,2012-07-01T13:00:00Z,29.4012,-89.0355,9.136,11111222 
WAVCIS,ioos:station:WAVCIS:CSI16:1,2012-07-01T14:00:00Z,29.4012,-89.0355,9.115,11111222 
WAVCIS,ioos:station:WAVCIS:CSI16:1,2012-07-01T15:00:00Z,29.4012,-89.0355,9.066,11111222 
WAVCIS,ioos:station:WAVCIS:CSI16:1,2012-07-01T16:00:00Z,29.4012,-89.0355,8.994,11111222 
WAVCIS,ioos:station:WAVCIS:CSI16:1,2012-07-01T17:00:00Z,29.4012,-89.0355,8.884,11111222 
WAVCIS,ioos:station:WAVCIS:CSI16:1,2012-07-01T18:00:00Z,29.4012,-89.0355,8.772,11111222 
WAVCIS,ioos:station:WAVCIS:CSI16:1,2012-07-01T19:00:00Z,29.4012,-89.0355,8.656,11111222 
WAVCIS,ioos:station:WAVCIS:CSI16:1,2012-07-01T20:00:00Z,29.4012,-89.0355,8.558,11111222 
WAVCIS,ioos:station:WAVCIS:CSI16:1,2012-07-01T21:00:00Z,29.4012,-89.0355,8.495,11111222 
WAVCIS,ioos:station:WAVCIS:CSI16:1,2012-07-01T22:00:00Z,29.4012,-89.0355,8.451,11111222 
WAVCIS,ioos:station:WAVCIS:CSI16:1,2012-07-01T23:00:00Z,29.4012,-89.0355,8.426,11111222 
WAVCIS,ioos:station:WAVCIS:CSI16:1,2012-07-02T00:00:00Z,29.4012,-89.0355,8.419,11111222 
WAVCIS,ioos:station:WAVCIS:CSI16:1,2012-07-02T01:00:00Z,29.4012,-89.0355,8.442,11111222 
WAVCIS,ioos:station:WAVCIS:CSI16:1,2012-07-02T02:00:00Z,29.4012,-89.0355,8.486,11111222 
WAVCIS,ioos:station:WAVCIS:CSI16:1,2012-07-02T03:00:00Z,29.4012,-89.0355,8.547,11111222 
WAVCIS,ioos:station:WAVCIS:CSI16:1,2012-07-02T04:00:00Z,29.4012,-89.0355,8.613,11111222 
WAVCIS,ioos:station:WAVCIS:CSI16:1,2012-07-02T05:00:00Z,29.4012,-89.0355,8.68,11111222 
WAVCIS,ioos:station:WAVCIS:CSI16:1,2012-07-02T06:00:00Z,29.4012,-89.0355,8.746,11111222 
WAVCIS,ioos:station:WAVCIS:CSI16:1,2012-07-02T07:00:00Z,29.4012,-89.0355,8.807,11111222 
WAVCIS,ioos:station:WAVCIS:CSI16:1,2012-07-02T08:00:00Z,29.4012,-89.0355,8.873,11111222 
WAVCIS,ioos:station:WAVCIS:CSI16:1,2012-07-02T09:00:00Z,29.4012,-89.0355,8.928,11111222 
WAVCIS,ioos:station:WAVCIS:CSI16:1,2012-07-02T10:00:00Z,29.4012,-89.0355,9.014,11111222 
WAVCIS,ioos:station:WAVCIS:CSI16:1,2012-07-02T11:00:00Z,29.4012,-89.0355,9.066,11111222 
WAVCIS,ioos:station:WAVCIS:CSI16:1,2012-07-02T12:00:00Z,29.4012,-89.0355,9.105,11111222 
WAVCIS,ioos:station:WAVCIS:CSI16:1,2012-07-02T13:00:00Z,29.4012,-89.0355,9.135,11111222 
WAVCIS,ioos:station:WAVCIS:CSI16:1,2012-07-02T14:00:00Z,29.4012,-89.0355,9.127,11111222 
WAVCIS,ioos:station:WAVCIS:CSI16:1,2012-07-02T15:00:00Z,29.4012,-89.0355,9.116,11111222 
WAVCIS,ioos:station:WAVCIS:CSI16:1,2012-07-02T16:00:00Z,29.4012,-89.0355,9.029,11111222 
WAVCIS,ioos:station:WAVCIS:CSI16:1,2012-07-02T17:00:00Z,29.4012,-89.0355,8.981,11111222 
WAVCIS,ioos:station:WAVCIS:CSI16:1,2012-07-02T18:00:00Z,29.4012,-89.0355,8.861,11111222 
WAVCIS,ioos:station:WAVCIS:CSI16:1,2012-07-02T19:00:00Z,29.4012,-89.0355,8.731,11111222 
WAVCIS,ioos:station:WAVCIS:CSI16:1,2012-07-02T20:00:00Z,29.4012,-89.0355,8.635,11111222 
WAVCIS,ioos:station:WAVCIS:CSI16:1,2012-07-02T21:00:00Z,29.4012,-89.0355,8.543,11111222 
WAVCIS,ioos:station:WAVCIS:CSI16:1,2012-07-02T22:00:00Z,29.4012,-89.0355,8.501,11111222 
WAVCIS,ioos:station:WAVCIS:CSI16:1,2012-07-02T23:00:00Z,29.4012,-89.0355,8.473,11111222 
WAVCIS,ioos:station:WAVCIS:CSI16:1,2012-07-03T00:00:00Z,29.4012,-89.0355,8.476,11111222 
WAVCIS,ioos:station:WAVCIS:CSI16:1,2012-07-03T01:00:00Z,29.4012,-89.0355,8.462,11111222 
WAVCIS,ioos:station:WAVCIS:CSI16:1,2012-07-03T02:00:00Z,29.4012,-89.0355,8.529,11111222 
WAVCIS,ioos:station:WAVCIS:CSI16:1,2012-07-03T03:00:00Z,29.4012,-89.0355,8.574,11111222 
WAVCIS,ioos:station:WAVCIS:CSI16:1,2012-07-03T04:00:00Z,29.4012,-89.0355,8.631,11111222 
WAVCIS,ioos:station:WAVCIS:CSI16:1,2012-07-03T05:00:00Z,29.4012,-89.0355,8.697,11111222 
WAVCIS,ioos:station:WAVCIS:CSI16:1,2012-07-03T06:00:00Z,29.4012,-89.0355,8.746,11111222 
WAVCIS,ioos:station:WAVCIS:CSI16:1,2012-07-03T07:00:00Z,29.4012,-89.0355,8.805,11111222 
WAVCIS,ioos:station:WAVCIS:CSI16:1,2012-07-03T08:00:00Z,29.4012,-89.0355,8.866,11111222 
WAVCIS,ioos:station:WAVCIS:CSI16:1,2012-07-03T09:00:00Z,29.4012,-89.0355,8.932,11111222 
WAVCIS,ioos:station:WAVCIS:CSI16:1,2012-07-03T10:00:00Z,29.4012,-89.0355,9.013,11111222 
WAVCIS,ioos:station:WAVCIS:CSI16:1,2012-07-03T11:00:00Z,29.4012,-89.0355,9.078,11111222 
WAVCIS,ioos:station:WAVCIS:CSI16:1,2012-07-03T12:00:00Z,29.4012,-89.0355,9.124,11111222 
WAVCIS,ioos:station:WAVCIS:CSI16:1,2012-07-03T13:00:00Z,29.4012,-89.0355,9.139,11111222 
WAVCIS,ioos:station:WAVCIS:CSI16:1,2012-07-03T14:00:00Z,29.4012,-89.0355,9.149,11111222 
WAVCIS,ioos:station:WAVCIS:CSI16:1,2012-07-03T15:00:00Z,29.4012,-89.0355,9.14,11111222 
WAVCIS,ioos:station:WAVCIS:CSI16:1,2012-07-03T16:00:00Z,29.4012,-89.0355,9.116,11111222 
WAVCIS,ioos:station:WAVCIS:CSI16:1,2012-07-03T17:00:00Z,29.4012,-89.0355,9.047,11111222 
WAVCIS,ioos:station:WAVCIS:CSI16:1,2012-07-03T18:00:00Z,29.4012,-89.0355,8.955,11111222 
WAVCIS,ioos:station:WAVCIS:CSI16:1,2012-07-03T19:00:00Z,29.4012,-89.0355,8.841,11111222 
WAVCIS,ioos:station:WAVCIS:CSI16:1,2012-07-03T20:00:00Z,29.4012,-89.0355,8.726,11111222 
WAVCIS,ioos:station:WAVCIS:CSI16:1,2012-07-03T21:00:00Z,29.4012,-89.0355,8.61,11111222 
WAVCIS,ioos:station:WAVCIS:CSI16:1,2012-07-03T22:00:00Z,29.4012,-89.0355,8.563,11111222 
WAVCIS,ioos:station:WAVCIS:CSI16:1,2012-07-03T23:00:00Z,29.4012,-89.0355,8.513,11111222 
WAVCIS,ioos:station:WAVCIS:CSI16:1,2012-07-04T00:00:00Z,29.4012,-89.0355,8.479,11111222 
WAVCIS,ioos:station:WAVCIS:CSI16:1,2012-07-04T01:00:00Z,29.4012,-89.0355,8.461,11111222 
WAVCIS,ioos:station:WAVCIS:CSI16:1,2012-07-04T02:00:00Z,29.4012,-89.0355,8.485,11111222 
WAVCIS,ioos:station:WAVCIS:CSI16:1,2012-07-04T03:00:00Z,29.4012,-89.0355,8.548,11111222 
WAVCIS,ioos:station:WAVCIS:CSI16:1,2012-07-04T04:00:00Z,29.4012,-89.0355,8.55,11111222 
WAVCIS,ioos:station:WAVCIS:CSI16:1,2012-07-04T05:00:00Z,29.4012,-89.0355,8.64,11111222 
WAVCIS,ioos:station:WAVCIS:CSI16:1,2012-07-04T06:00:00Z,29.4012,-89.0355,8.698,11111222 
WAVCIS,ioos:station:WAVCIS:CSI16:1,2012-07-04T07:00:00Z,29.4012,-89.0355,8.743,11111222 
WAVCIS,ioos:station:WAVCIS:CSI16:1,2012-07-04T08:00:00Z,29.4012,-89.0355,8.799,11111222 
WAVCIS,ioos:station:WAVCIS:CSI16:1,2012-07-04T09:00:00Z,29.4012,-89.0355,8.868,11111222 
WAVCIS,ioos:station:WAVCIS:CSI16:1,2012-07-04T10:00:00Z,29.4012,-89.0355,8.935,11111222 
WAVCIS,ioos:station:WAVCIS:CSI16:1,2012-07-04T11:00:00Z,29.4012,-89.0355,9.018,11111222 
WAVCIS,ioos:station:WAVCIS:CSI16:1,2012-07-04T12:00:00Z,29.4012,-89.0355,9.062,11111222 
WAVCIS,ioos:station:WAVCIS:CSI16:1,2012-07-04T13:00:00Z,29.4012,-89.0355,9.118,11111222 
WAVCIS,ioos:station:WAVCIS:CSI16:1,2012-07-04T14:00:00Z,29.4012,-89.0355,9.139,11111222 
WAVCIS,ioos:station:WAVCIS:CSI16:1,2012-07-04T15:00:00Z,29.4012,-89.0355,9.131,11111222 
WAVCIS,ioos:station:WAVCIS:CSI16:1,2012-07-04T16:00:00Z,29.4012,-89.0355,9.088,11111222 
WAVCIS,ioos:station:WAVCIS:CSI16:1,2012-07-04T17:00:00Z,29.4012,-89.0355,9.082,11111222 
WAVCIS,ioos:station:WAVCIS:CSI16:1,2012-07-04T18:00:00Z,29.4012,-89.0355,8.997,11111222 
WAVCIS,ioos:station:WAVCIS:CSI16:1,2012-07-04T19:00:00Z,29.4012,-89.0355,8.915,11111222 
WAVCIS,ioos:station:WAVCIS:CSI16:1,2012-07-04T20:00:00Z,29.4012,-89.0355,8.855,11111222 
WAVCIS,ioos:station:WAVCIS:CSI16:1,2012-07-04T21:00:00Z,29.4012,-89.0355,8.712,11111222 
WAVCIS,ioos:station:WAVCIS:CSI16:1,2012-07-04T22:00:00Z,29.4012,-89.0355,8.633,11111222 
WAVCIS,ioos:station:WAVCIS:CSI16:1,2012-07-04T23:00:00Z,29.4012,-89.0355,8.595,11111222 
WAVCIS,ioos:station:WAVCIS:CSI16:1,2012-07-05T00:00:00Z,29.4012,-89.0355,8.551,11111222 
WAVCIS,ioos:station:WAVCIS:CSI16:1,2012-07-05T01:00:00Z,29.4012,-89.0355,8.527,11111222 
WAVCIS,ioos:station:WAVCIS:CSI16:1,2012-07-05T02:00:00Z,29.4012,-89.0355,8.522,11111222 
WAVCIS,ioos:station:WAVCIS:CSI16:1,2012-07-05T03:00:00Z,29.4012,-89.0355,8.536,11111222 
WAVCIS,ioos:station:WAVCIS:CSI16:1,2012-07-05T04:00:00Z,29.4012,-89.0355,8.569,11111222 
WAVCIS,ioos:station:WAVCIS:CSI16:1,2012-07-05T05:00:00Z,29.4012,-89.0355,8.62,11111222 
WAVCIS,ioos:station:WAVCIS:CSI16:1,2012-07-05T06:00:00Z,29.4012,-89.0355,8.66,11111222 
WAVCIS,ioos:station:WAVCIS:CSI16:1,2012-07-05T07:00:00Z,29.4012,-89.0355,8.695,11111222 
WAVCIS,ioos:station:WAVCIS:CSI16:1,2012-07-05T08:00:00Z,29.4012,-89.0355,8.748,11111222 
WAVCIS,ioos:station:WAVCIS:CSI16:1,2012-07-05T09:00:00Z,29.4012,-89.0355,8.785,11111222 
WAVCIS,ioos:station:WAVCIS:CSI16:1,2012-07-05T10:00:00Z,29.4012,-89.0355,8.849,11111222 
WAVCIS,ioos:station:WAVCIS:CSI16:1,2012-07-05T11:00:00Z,29.4012,-89.0355,8.925,11111222 
WAVCIS,ioos:station:WAVCIS:CSI16:1,2012-07-05T12:00:00Z,29.4012,-89.0355,8.986,11111222 
WAVCIS,ioos:station:WAVCIS:CSI16:1,2012-07-05T13:00:00Z,29.4012,-89.0355,9.048,11111222 
WAVCIS,ioos:station:WAVCIS:CSI16:1,2012-07-05T14:00:00Z,29.4012,-89.0355,9.08,11111222 
WAVCIS,ioos:station:WAVCIS:CSI16:1,2012-07-05T15:00:00Z,29.4012,-89.0355,9.1,11111222 
WAVCIS,ioos:station:WAVCIS:CSI16:1,2012-07-05T16:00:00Z,29.4012,-89.0355,9.099,11111222 
WAVCIS,ioos:station:WAVCIS:CSI16:1,2012-07-05T17:00:00Z,29.4012,-89.0355,9.09,11111222 
WAVCIS,ioos:station:WAVCIS:CSI16:1,2012-07-05T18:00:00Z,29.4012,-89.0355,9.037,11111222 
WAVCIS,ioos:station:WAVCIS:CSI16:1,2012-07-05T19:00:00Z,29.4012,-89.0355,8.986,11111222 
WAVCIS,ioos:station:WAVCIS:CSI16:1,2012-07-05T20:00:00Z,29.4012,-89.0355,8.916,11111222 
WAVCIS,ioos:station:WAVCIS:CSI16:1,2012-07-05T21:00:00Z,29.4012,-89.0355,8.835,11111222 
WAVCIS,ioos:station:WAVCIS:CSI16:1,2012-07-05T22:00:00Z,29.4012,-89.0355,8.74,11111222 
WAVCIS,ioos:station:WAVCIS:CSI16:1,2012-07-05T23:00:00Z,29.4012,-89.0355,8.677,11111222 
WAVCIS,ioos:station:WAVCIS:CSI16:1,2012-07-06T00:00:00Z,29.4012,-89.0355,8.651,11111222 
WAVCIS,ioos:station:WAVCIS:CSI16:1,2012-07-06T01:00:00Z,29.4012,-89.0355,8.62,11111222 
WAVCIS,ioos:station:WAVCIS:CSI16:1,2012-07-06T02:00:00Z,29.4012,-89.0355,8.603,11111222 
WAVCIS,ioos:station:WAVCIS:CSI16:1,2012-07-06T03:00:00Z,29.4012,-89.0355,8.611,11111222 
WAVCIS,ioos:station:WAVCIS:CSI16:1,2012-07-06T04:00:00Z,29.4012,-89.0355,8.618,11111222 
WAVCIS,ioos:station:WAVCIS:CSI16:1,2012-07-06T05:00:00Z,29.4012,-89.0355,8.646,11111222 
WAVCIS,ioos:station:WAVCIS:CSI16:1,2012-07-06T06:00:00Z,29.4012,-89.0355,8.688,11111222 
WAVCIS,ioos:station:WAVCIS:CSI16:1,2012-07-06T07:00:00Z,29.4012,-89.0355,8.705,11111222 
WAVCIS,ioos:station:WAVCIS:CSI16:1,2012-07-06T08:00:00Z,29.4012,-89.0355,8.741,11111222 
WAVCIS,ioos:station:WAVCIS:CSI16:1,2012-07-06T09:00:00Z,29.4012,-89.0355,8.791,11111222 
WAVCIS,ioos:station:WAVCIS:CSI16:1,2012-07-06T10:00:00Z,29.4012,-89.0355,8.822,11111222 
WAVCIS,ioos:station:WAVCIS:CSI16:1,2012-07-06T11:00:00Z,29.4012,-89.0355,8.849,11111222 
WAVCIS,ioos:station:WAVCIS:CSI16:1,2012-07-06T12:00:00Z,29.4012,-89.0355,8.905,11111222 
WAVCIS,ioos:station:WAVCIS:CSI16:1,2012-07-06T13:00:00Z,29.4012,-89.0355,8.956,11111222 
WAVCIS,ioos:station:WAVCIS:CSI16:1,2012-07-06T14:00:00Z,29.4012,-89.0355,8.996,11111222 
WAVCIS,ioos:station:WAVCIS:CSI16:1,2012-07-06T15:00:00Z,29.4012,-89.0355,9.0,11111222 
WAVCIS,ioos:station:WAVCIS:CSI16:1,2012-07-06T16:00:00Z,29.4012,-89.0355,9.001,11111222 
WAVCIS,ioos:station:WAVCIS:CSI16:1,2012-07-06T17:00:00Z,29.4012,-89.0355,8.968,11111222 
WAVCIS,ioos:station:WAVCIS:CSI16:1,2012-07-06T18:00:00Z,29.4012,-89.0355,9.018,11111222 
WAVCIS,ioos:station:WAVCIS:CSI16:1,2012-07-06T19:00:00Z,29.4012,-89.0355,8.95,11111222 
WAVCIS,ioos:station:WAVCIS:CSI16:1,2012-07-06T20:00:00Z,29.4012,-89.0355,8.9,11111222 
WAVCIS,ioos:station:WAVCIS:CSI16:1,2012-07-06T21:00:00Z,29.4012,-89.0355,8.884,11111222 
WAVCIS,ioos:station:WAVCIS:CSI16:1,2012-07-06T22:00:00Z,29.4012,-89.0355,8.799,11111222 
WAVCIS,ioos:station:WAVCIS:CSI16:1,2012-07-06T23:00:00Z,29.4012,-89.0355,8.734,11111222 
WAVCIS,ioos:station:WAVCIS:CSI16:1,2012-07-07T00:00:00Z,29.4012,-89.0355,8.689,11111222 
WAVCIS,ioos:station:WAVCIS:CSI16:1,2012-07-07T01:00:00Z,29.4012,-89.0355,8.665,11111222 
WAVCIS,ioos:station:WAVCIS:CSI16:1,2012-07-07T02:00:00Z,29.4012,-89.0355,8.648,11111222 
WAVCIS,ioos:station:WAVCIS:CSI16:1,2012-07-07T03:00:00Z,29.4012,-89.0355,8.652,11111222 
WAVCIS,ioos:station:WAVCIS:CSI16:1,2012-07-07T04:00:00Z,29.4012,-89.0355,8.654,11111222 
WAVCIS,ioos:station:WAVCIS:CSI16:1,2012-07-07T05:00:00Z,29.4012,-89.0355,8.666,11111222 
WAVCIS,ioos:station:WAVCIS:CSI16:1,2012-07-07T06:00:00Z,29.4012,-89.0355,8.69,11111222 
WAVCIS,ioos:station:WAVCIS:CSI16:1,2012-07-07T07:00:00Z,29.4012,-89.0355,8.726,11111222 
WAVCIS,ioos:station:WAVCIS:CSI16:1,2012-07-07T08:00:00Z,29.4012,-89.0355,8.758,11111222 
WAVCIS,ioos:station:WAVCIS:CSI16:1,2012-07-07T09:00:00Z,29.4012,-89.0355,8.777,11111222 
WAVCIS,ioos:station:WAVCIS:CSI16:1,2012-07-07T10:00:00Z,29.4012,-89.0355,8.805,11111222 
WAVCIS,ioos:station:WAVCIS:CSI16:1,2012-07-07T11:00:00Z,29.4012,-89.0355,8.835,11111222 
WAVCIS,ioos:station:WAVCIS:CSI16:1,2012-07-07T12:00:00Z,29.4012,-89.0355,8.871,11111222 
WAVCIS,ioos:station:WAVCIS:CSI16:1,2012-07-07T13:00:00Z,29.4012,-89.0355,8.893,11111222 
WAVCIS,ioos:station:WAVCIS:CSI16:1,2012-07-07T14:00:00Z,29.4012,-89.0355,8.944,11111222 
WAVCIS,ioos:station:WAVCIS:CSI16:1,2012-07-07T15:00:00Z,29.4012,-89.0355,8.94,11111222 
WAVCIS,ioos:station:WAVCIS:CSI16:1,2012-07-07T16:00:00Z,29.4012,-89.0355,8.957,11111222 
WAVCIS,ioos:station:WAVCIS:CSI16:1,2012-07-07T17:00:00Z,29.4012,-89.0355,8.97,11111222 
WAVCIS,ioos:station:WAVCIS:CSI16:1,2012-07-07T18:00:00Z,29.4012,-89.0355,8.967,11111222 
WAVCIS,ioos:station:WAVCIS:CSI16:1,2012-07-07T19:00:00Z,29.4012,-89.0355,8.95,11111222 
WAVCIS,ioos:station:WAVCIS:CSI16:1,2012-07-07T20:00:00Z,29.4012,-89.0355,8.928,11111222 
WAVCIS,ioos:station:WAVCIS:CSI16:1,2012-07-07T21:00:00Z,29.4012,-89.0355,8.897,11111222 
WAVCIS,ioos:station:WAVCIS:CSI16:1,2012-07-07T22:00:00Z,29.4012,-89.0355,8.866,11111222 
WAVCIS,ioos:station:WAVCIS:CSI16:1,2012-07-07T23:00:00Z,29.4012,-89.0355,8.816,11111222 
WAVCIS,ioos:station:WAVCIS:CSI16:1,2012-07-08T00:00:00Z,29.4012,-89.0355,8.786,11111222 
WAVCIS,ioos:station:WAVCIS:CSI16:1,2012-07-08T01:00:00Z,29.4012,-89.0355,8.753,11111222 
WAVCIS,ioos:station:WAVCIS:CSI16:1,2012-07-08T02:00:00Z,29.4012,-89.0355,8.757,11111222 
WAVCIS,ioos:station:WAVCIS:CSI16:1,2012-07-08T03:00:00Z,29.4012,-89.0355,8.757,11111222 
WAVCIS,ioos:station:WAVCIS:CSI16:1,2012-07-08T04:00:00Z,29.4012,-89.0355,8.758,11111222 
WAVCIS,ioos:station:WAVCIS:CSI16:1,2012-07-08T05:00:00Z,29.4012,-89.0355,8.773,11111222 
WAVCIS,ioos:station:WAVCIS:CSI16:1,2012-07-08T06:00:00Z,29.4012,-89.0355,8.784,11111222 
WAVCIS,ioos:station:WAVCIS:CSI16:1,2012-07-08T07:00:00Z,29.4012,-89.0355,8.799,11111222 
WAVCIS,ioos:station:WAVCIS:CSI16:1,2012-07-08T08:00:00Z,29.4012,-89.0355,8.827,11111222 
WAVCIS,ioos:station:WAVCIS:CSI16:1,2012-07-08T09:00:00Z,29.4012,-89.0355,8.836,11111222 
WAVCIS,ioos:station:WAVCIS:CSI16:1,2012-07-08T10:00:00Z,29.4012,-89.0355,8.845,11111222 
WAVCIS,ioos:station:WAVCIS:CSI16:1,2012-07-08T11:00:00Z,29.4012,-89.0355,8.855,11111222 
WAVCIS,ioos:station:WAVCIS:CSI16:1,2012-07-08T12:00:00Z,29.4012,-89.0355,8.855,11111222 
WAVCIS,ioos:station:WAVCIS:CSI16:1,2012-07-08T13:00:00Z,29.4012,-89.0355,8.864,11111222 
WAVCIS,ioos:station:WAVCIS:CSI16:1,2012-07-08T14:00:00Z,29.4012,-89.0355,8.877,11111222 
WAVCIS,ioos:station:WAVCIS:CSI16:1,2012-07-08T15:00:00Z,29.4012,-89.0355,8.89,11111222 
WAVCIS,ioos:station:WAVCIS:CSI16:1,2012-07-08T16:00:00Z,29.4012,-89.0355,8.877,11111222 
WAVCIS,ioos:station:WAVCIS:CSI16:1,2012-07-08T17:00:00Z,29.4012,-89.0355,8.878,11111222 
WAVCIS,ioos:station:WAVCIS:CSI16:1,2012-07-08T18:00:00Z,29.4012,-89.0355,8.866,11111222 
WAVCIS,ioos:station:WAVCIS:CSI16:1,2012-07-08T19:00:00Z,29.4012,-89.0355,8.854,11111222 
WAVCIS,ioos:station:WAVCIS:CSI16:1,2012-07-08T20:00:00Z,29.4012,-89.0355,8.832,11111222 
WAVCIS,ioos:station:WAVCIS:CSI16:1,2012-07-08T21:00:00Z,29.4012,-89.0355,8.813,11111222 
WAVCIS,ioos:station:WAVCIS:CSI16:1,2012-07-08T22:00:00Z,29.4012,-89.0355,8.795,11111222 
WAVCIS,ioos:station:WAVCIS:CSI16:1,2012-07-08T23:00:00Z,29.4012,-89.0355,8.782,11111222 
WAVCIS,ioos:station:WAVCIS:CSI16:1,2012-07-09T00:00:00Z,29.4012,-89.0355,8.747,11111222 
WAVCIS,ioos:station:WAVCIS:CSI16:1,2012-07-09T01:00:00Z,29.4012,-89.0355,8.727,11111222 
WAVCIS,ioos:station:WAVCIS:CSI16:1,2012-07-09T02:00:00Z,29.4012,-89.0355,8.733,11111222 
WAVCIS,ioos:station:WAVCIS:CSI16:1,2012-07-09T03:00:00Z,29.4012,-89.0355,8.756,11111222 
WAVCIS,ioos:station:WAVCIS:CSI16:1,2012-07-09T04:00:00Z,29.4012,-89.0355,8.752,11111222 
WAVCIS,ioos:station:WAVCIS:CSI16:1,2012-07-09T05:00:00Z,29.4012,-89.0355,8.775,11111222 
WAVCIS,ioos:station:WAVCIS:CSI16:1,2012-07-09T06:00:00Z,29.4012,-89.0355,8.79,11111222 
WAVCIS,ioos:station:WAVCIS:CSI16:1,2012-07-09T07:00:00Z,29.4012,-89.0355,8.802,11111222 
WAVCIS,ioos:station:WAVCIS:CSI16:1,2012-07-09T08:00:00Z,29.4012,-89.0355,8.841,11111222 
WAVCIS,ioos:station:WAVCIS:CSI16:1,2012-07-09T09:00:00Z,29.4012,-89.0355,8.829,11111222 
WAVCIS,ioos:station:WAVCIS:CSI16:1,2012-07-09T10:00:00Z,29.4012,-89.0355,8.846,11111222 
WAVCIS,ioos:station:WAVCIS:CSI16:1,2012-07-09T11:00:00Z,29.4012,-89.0355,8.851,11111222 
WAVCIS,ioos:station:WAVCIS:CSI16:1,2012-07-09T12:00:00Z,29.4012,-89.0355,8.84,11111222 
WAVCIS,ioos:station:WAVCIS:CSI16:1,2012-07-09T13:00:00Z,29.4012,-89.0355,8.853,11111222 
WAVCIS,ioos:station:WAVCIS:CSI16:1,2012-07-09T14:00:00Z,29.4012,-89.0355,8.837,11111222 
WAVCIS,ioos:station:WAVCIS:CSI16:1,2012-07-09T15:00:00Z,29.4012,-89.0355,8.841,11111222 
WAVCIS,ioos:station:WAVCIS:CSI16:1,2012-07-09T16:00:00Z,29.4012,-89.0355,8.842,11111222 
WAVCIS,ioos:station:WAVCIS:CSI16:1,2012-07-09T17:00:00Z,29.4012,-89.0355,8.831,11111222 
WAVCIS,ioos:station:WAVCIS:CSI16:1,2012-07-09T18:00:00Z,29.4012,-89.0355,8.817,11111222 
WAVCIS,ioos:station:WAVCIS:CSI16:1,2012-07-09T19:00:00Z,29.4012,-89.0355,8.834,11111222 
WAVCIS,ioos:station:WAVCIS:CSI16:1,2012-07-09T20:00:00Z,29.4012,-89.0355,8.793,11111222 
WAVCIS,ioos:station:WAVCIS:CSI16:1,2012-07-09T21:00:00Z,29.4012,-89.0355,8.774,11111222 
WAVCIS,ioos:station:WAVCIS:CSI16:1,2012-07-09T22:00:00Z,29.4012,-89.0355,8.776,11111222 
WAVCIS,ioos:station:WAVCIS:CSI16:1,2012-07-09T23:00:00Z,29.4012,-89.0355,8.77,11111222 
WAVCIS,ioos:station:WAVCIS:CSI16:1,2012-07-10T00:00:00Z,29.4012,-89.0355,8.753,11111222 
WAVCIS,ioos:station:WAVCIS:CSI16:1,2012-07-10T01:00:00Z,29.4012,-89.0355,8.748,11111222 
WAVCIS,ioos:station:WAVCIS:CSI16:1,2012-07-10T02:00:00Z,29.4012,-89.0355,8.752,11111222 
WAVCIS,ioos:station:WAVCIS:CSI16:1,2012-07-10T03:00:00Z,29.4012,-89.0355,8.763,11111222 
WAVCIS,ioos:station:WAVCIS:CSI16:1,2012-07-10T04:00:00Z,29.4012,-89.0355,8.787,11111222 
WAVCIS,ioos:station:WAVCIS:CSI16:1,2012-07-10T05:00:00Z,29.4012,-89.0355,8.794,11111222 
WAVCIS,ioos:station:WAVCIS:CSI16:1,2012-07-10T06:00:00Z,29.4012,-89.0355,8.813,11111222 
WAVCIS,ioos:station:WAVCIS:CSI16:1,2012-07-10T07:00:00Z,29.4012,-89.0355,8.814,11111222 
WAVCIS,ioos:station:WAVCIS:CSI16:1,2012-07-10T08:00:00Z,29.4012,-89.0355,8.84,11111222 
WAVCIS,ioos:station:WAVCIS:CSI16:1,2012-07-10T09:00:00Z,29.4012,-89.0355,8.837,11111222 
WAVCIS,ioos:station:WAVCIS:CSI16:1,2012-07-10T10:00:00Z,29.4012,-89.0355,8.827,11111222 
WAVCIS,ioos:station:WAVCIS:CSI16:1,2012-07-10T11:00:00Z,29.4012,-89.0355,8.841,11111222 
WAVCIS,ioos:station:WAVCIS:CSI16:1,2012-07-10T12:00:00Z,29.4012,-89.0355,8.831,11111222 
WAVCIS,ioos:station:WAVCIS:CSI16:1,2012-07-10T13:00:00Z,29.4012,-89.0355,8.826,11111222 
WAVCIS,ioos:station:WAVCIS:CSI16:1,2012-07-10T14:00:00Z,29.4012,-89.0355,8.798,11111222 
WAVCIS,ioos:station:WAVCIS:CSI16:1,2012-07-10T15:00:00Z,29.4012,-89.0355,8.776,11111222 
WAVCIS,ioos:station:WAVCIS:CSI16:1,2012-07-10T16:00:00Z,29.4012,-89.0355,8.784,11111222 
WAVCIS,ioos:station:WAVCIS:CSI16:1,2012-07-10T17:00:00Z,29.4012,-89.0355,8.767,11111222 
WAVCIS,ioos:station:WAVCIS:CSI16:1,2012-07-10T18:00:00Z,29.4012,-89.0355,8.755,11111222 
WAVCIS,ioos:station:WAVCIS:CSI16:1,2012-07-10T19:00:00Z,29.4012,-89.0355,8.683,11111222 
WAVCIS,ioos:station:WAVCIS:CSI16:1,2012-07-10T20:00:00Z,29.4012,-89.0355,8.665,11111222 
WAVCIS,ioos:station:WAVCIS:CSI16:1,2012-07-10T21:00:00Z,29.4012,-89.0355,8.664,11111222 
WAVCIS,ioos:station:WAVCIS:CSI16:1,2012-07-10T22:00:00Z,29.4012,-89.0355,8.645,11111222 
WAVCIS,ioos:station:WAVCIS:CSI16:1,2012-07-10T23:00:00Z,29.4012,-89.0355,8.66,11111222 
WAVCIS,ioos:station:WAVCIS:CSI16:1,2012-07-11T00:00:00Z,29.4012,-89.0355,8.688,11111222 
WAVCIS,ioos:station:WAVCIS:CSI16:1,2012-07-11T01:00:00Z,29.4012,-89.0355,8.698,11111222 
WAVCIS,ioos:station:WAVCIS:CSI16:1,2012-07-11T02:00:00Z,29.4012,-89.0355,8.726,11111222 
WAVCIS,ioos:station:WAVCIS:CSI16:1,2012-07-11T03:00:00Z,29.4012,-89.0355,8.746,11111222 
WAVCIS,ioos:station:WAVCIS:CSI16:1,2012-07-11T04:00:00Z,29.4012,-89.0355,8.793,11111222 
WAVCIS,ioos:station:WAVCIS:CSI16:1,2012-07-11T05:00:00Z,29.4012,-89.0355,8.825,11111222 
WAVCIS,ioos:station:WAVCIS:CSI16:1,2012-07-11T06:00:00Z,29.4012,-89.0355,8.869,11111222 
WAVCIS,ioos:station:WAVCIS:CSI16:1,2012-07-11T07:00:00Z,29.4012,-89.0355,8.891,11111222 
WAVCIS,ioos:station:WAVCIS:CSI16:1,2012-07-11T08:00:00Z,29.4012,-89.0355,8.91,11111222 
WAVCIS,ioos:station:WAVCIS:CSI16:1,2012-07-11T09:00:00Z,29.4012,-89.0355,8.91,11111222 
WAVCIS,ioos:station:WAVCIS:CSI16:1,2012-07-11T10:00:00Z,29.4012,-89.0355,8.902,11111222 
WAVCIS,ioos:station:WAVCIS:CSI16:1,2012-07-11T11:00:00Z,29.4012,-89.0355,8.89,11111222 
WAVCIS,ioos:station:WAVCIS:CSI16:1,2012-07-11T12:00:00Z,29.4012,-89.0355,8.88,11111222 
WAVCIS,ioos:station:WAVCIS:CSI16:1,2012-07-11T13:00:00Z,29.4012,-89.0355,8.861,11111222 
WAVCIS,ioos:station:WAVCIS:CSI16:1,2012-07-11T14:00:00Z,29.4012,-89.0355,8.824,11111222 
WAVCIS,ioos:station:WAVCIS:CSI16:1,2012-07-11T15:00:00Z,29.4012,-89.0355,8.781,11111222 
WAVCIS,ioos:station:WAVCIS:CSI16:1,2012-07-11T16:00:00Z,29.4012,-89.0355,8.766,11111222 
WAVCIS,ioos:station:WAVCIS:CSI16:1,2012-07-11T17:00:00Z,29.4012,-89.0355,8.73,11111222 
WAVCIS,ioos:station:WAVCIS:CSI16:1,2012-07-11T18:00:00Z,29.4012,-89.0355,8.689,11111222 
WAVCIS,ioos:station:WAVCIS:CSI16:1,2012-07-11T19:00:00Z,29.4012,-89.0355,8.67,11111222 
WAVCIS,ioos:station:WAVCIS:CSI16:1,2012-07-11T20:00:00Z,29.4012,-89.0355,8.651,11111222 
WAVCIS,ioos:station:WAVCIS:CSI16:1,2012-07-11T21:00:00Z,29.4012,-89.0355,8.62,11111222 
WAVCIS,ioos:station:WAVCIS:CSI16:1,2012-07-11T22:00:00Z,29.4012,-89.0355,8.644,11111222 
WAVCIS,ioos:station:WAVCIS:CSI16:1,2012-07-11T23:00:00Z,29.4012,-89.0355,8.612,11111222 
WAVCIS,ioos:station:WAVCIS:CSI16:1,2012-07-12T00:00:00Z,29.4012,-89.0355,8.638,11111222 
WAVCIS,ioos:station:WAVCIS:CSI16:1,2012-07-12T01:00:00Z,29.4012,-89.0355,8.653,11111222 
WAVCIS,ioos:station:WAVCIS:CSI16:1,2012-07-12T02:00:00Z,29.4012,-89.0355,8.689,11111222 
WAVCIS,ioos:station:WAVCIS:CSI16:1,2012-07-12T03:00:00Z,29.4012,-89.0355,8.735,11111222 
WAVCIS,ioos:station:WAVCIS:CSI16:1,2012-07-12T04:00:00Z,29.4012,-89.0355,8.784,11111222 